Time,TemperatureF,DewpointF,PressureIn,WindDirection,WindDirectionDegrees,WindSpeedMPH,WindSpeedGustMPH,Humidity,HourlyPrecipIn,Conditions,Clouds,dailyrainin,SolarRadiationWatts/m^2,SoftwareType,DateUTC
2013-07-12 00:00:00,77.9,57.0,29.67,SSW,198,6.0,-999.0,42,-99.99,,,0.00,0.0,cwc,2013-07-12 06:00:00,
2013-07-12 00:05:00,77.6,56.7,29.67,SSW,199,5.0,-999.0,42,-99.99,,,0.00,0.0,cwc,2013-07-12 06:05:00,
2013-07-12 00:10:00,77.3,56.4,29.67,SSW,211,10.0,-999.0,42,-99.99,,,0.00,0.0,cwc,2013-07-12 06:10:00,
2013-07-12 00:15:00,76.9,55.3,29.67,SSW,198,6.0,-999.0,40,-99.99,,,0.00,0.0,cwc,2013-07-12 06:15:00,
2013-07-12 00:20:00,76.7,55.1,29.67,SSW,192,5.0,-999.0,40,-99.99,,,0.00,0.0,cwc,2013-07-12 06:20:00,
2013-07-12 00:25:00,76.4,54.8,29.67,SSE,167,7.0,-999.0,40,-99.99,,,0.00,0.0,cwc,2013-07-12 06:25:00,
2013-07-12 00:30:00,76.0,54.0,29.67,South,184,9.0,-999.0,39,-99.99,,,0.00,0.0,cwc,2013-07-12 06:30:00,
2013-07-12 00:35:00,75.7,53.7,29.67,South,175,4.0,-999.0,39,-99.99,,,0.00,0.0,cwc,2013-07-12 06:35:00,
2013-07-12 00:40:00,75.5,53.9,29.67,South,175,3.0,-999.0,40,-99.99,,,0.00,0.0,cwc,2013-07-12 06:40:00,
2013-07-12 00:45:00,75.3,53.7,29.68,South,178,5.0,-999.0,40,-99.99,,,0.00,0.0,cwc,2013-07-12 06:45:00,
2013-07-12 00:50:00,75.1,53.5,29.67,South,178,2.0,-999.0,40,-99.99,,,0.00,0.0,cwc,2013-07-12 06:50:00,
2013-07-12 00:55:00,74.7,53.5,29.67,South,178,5.0,-999.0,41,-99.99,,,0.00,0.0,cwc,2013-07-12 06:55:00,
2013-07-12 01:00:00,74.4,53.5,29.67,South,180,3.0,-999.0,42,-99.99,,,0.00,0.0,cwc,2013-07-12 07:00:00,
2013-07-12 01:10:00,74.0,53.5,29.67,SW,221,6.0,-999.0,43,-99.99,,,0.00,0.0,cwc,2013-07-12 07:10:00,
2013-07-12 01:15:00,73.9,53.7,29.67,SSW,204,7.0,-999.0,44,-99.99,,,0.00,0.0,cwc,2013-07-12 07:15:00,
2013-07-12 01:20:00,73.7,53.5,29.67,SSW,213,7.0,-999.0,44,-99.99,,,0.00,0.0,cwc,2013-07-12 07:20:00,
2013-07-12 01:25:00,73.5,53.3,29.66,SW,222,3.0,-999.0,44,-99.99,,,0.00,0.0,cwc,2013-07-12 07:25:00,
2013-07-12 01:30:00,73.2,53.4,29.66,SW,222,0.0,-999.0,45,-99.99,,,0.00,0.0,cwc,2013-07-12 07:30:00,
2013-07-12 01:35:00,73.0,53.2,29.66,SW,222,1.0,-999.0,45,-99.99,,,0.00,0.0,cwc,2013-07-12 07:35:00,
2013-07-12 01:40:00,72.7,53.3,29.66,SW,222,0.0,-999.0,46,-99.99,,,0.00,0.0,cwc,2013-07-12 07:40:00,
2013-07-12 01:45:00,72.3,52.9,29.65,SW,222,0.0,-999.0,46,-99.99,,,0.00,0.0,cwc,2013-07-12 07:45:00,
2013-07-12 01:55:00,71.5,52.4,29.65,SW,222,0.0,-999.0,47,-99.99,,,0.00,0.0,cwc,2013-07-12 07:55:00,
2013-07-12 02:00:00,71.1,52.4,29.65,SW,222,0.0,-999.0,48,-99.99,,,0.00,0.0,cwc,2013-07-12 08:00:00,
2013-07-12 02:05:00,71.0,52.6,29.65,SW,222,0.0,-999.0,49,-99.99,,,0.00,0.0,cwc,2013-07-12 08:05:00,
2013-07-12 02:10:00,70.9,52.5,29.65,SW,222,0.0,-999.0,49,-99.99,,,0.00,0.0,cwc,2013-07-12 08:10:00,
2013-07-12 02:15:00,71.0,52.6,29.65,SW,222,0.0,-999.0,49,-99.99,,,0.00,0.0,cwc,2013-07-12 08:15:00,
2013-07-12 02:20:00,70.8,52.4,29.65,SW,222,0.0,-999.0,49,-99.99,,,0.00,0.0,cwc,2013-07-12 08:20:00,
2013-07-12 02:25:00,70.6,52.2,29.65,SW,222,0.0,-999.0,49,-99.99,,,0.00,0.0,cwc,2013-07-12 08:25:00,
2013-07-12 02:30:00,70.6,53.0,29.65,SW,222,1.0,-999.0,51,-99.99,,,0.00,0.0,cwc,2013-07-12 08:30:00,
2013-07-12 02:35:00,70.3,52.7,29.65,SW,222,0.0,-999.0,51,-99.99,,,0.00,0.0,cwc,2013-07-12 08:35:00,
2013-07-12 02:40:00,70.0,52.4,29.65,SW,222,0.0,-999.0,51,-99.99,,,0.00,0.0,cwc,2013-07-12 08:40:00,
2013-07-12 02:45:00,69.5,51.9,29.65,SW,222,1.0,-999.0,51,-99.99,,,0.00,0.0,cwc,2013-07-12 08:45:00,
2013-07-12 02:50:00,69.2,51.6,29.64,SW,222,0.0,-999.0,51,-99.99,,,0.00,0.0,cwc,2013-07-12 08:50:00,
2013-07-12 02:55:00,69.1,51.5,29.64,SW,222,0.0,-999.0,51,-99.99,,,0.00,0.0,cwc,2013-07-12 08:55:00,
2013-07-12 03:00:00,68.8,51.2,29.64,SW,222,2.0,-999.0,51,-99.99,,,0.00,0.0,cwc,2013-07-12 09:00:00,
2013-07-12 03:05:00,68.8,51.2,29.65,SW,222,0.0,-999.0,51,-99.99,,,0.00,0.0,cwc,2013-07-12 09:05:00,
2013-07-12 03:10:00,68.8,52.2,29.65,SW,222,0.0,-999.0,54,-99.99,,,0.00,0.0,cwc,2013-07-12 09:10:00,
2013-07-12 03:15:00,68.7,51.4,29.65,SW,222,0.0,-999.0,52,-99.99,,,0.00,0.0,cwc,2013-07-12 09:15:00,
2013-07-12 03:20:00,68.5,51.2,29.65,SW,222,0.0,-999.0,52,-99.99,,,0.00,0.0,cwc,2013-07-12 09:20:00,
2013-07-12 03:25:00,68.2,51.3,29.65,SW,222,0.0,-999.0,53,-99.99,,,0.00,0.0,cwc,2013-07-12 09:25:00,
2013-07-12 03:30:00,68.1,50.8,29.65,SW,222,0.0,-999.0,52,-99.99,,,0.00,0.0,cwc,2013-07-12 09:30:00,
2013-07-12 03:35:00,68.1,50.8,29.65,SW,222,0.0,-999.0,52,-99.99,,,0.00,0.0,cwc,2013-07-12 09:35:00,
2013-07-12 03:40:00,68.0,50.7,29.65,SW,222,1.0,-999.0,52,-99.99,,,0.00,0.0,cwc,2013-07-12 09:40:00,
2013-07-12 03:45:00,67.6,51.8,29.65,SW,222,0.0,-999.0,56,-99.99,,,0.00,0.0,cwc,2013-07-12 09:45:00,
2013-07-12 03:50:00,67.1,50.9,29.65,SW,222,0.0,-999.0,55,-99.99,,,0.00,0.0,cwc,2013-07-12 09:50:00,
2013-07-12 03:55:00,66.5,49.9,29.64,SW,222,0.0,-999.0,54,-99.99,,,0.00,0.0,cwc,2013-07-12 09:55:00,
2013-07-12 04:00:00,66.0,49.8,29.64,SW,222,0.0,-999.0,55,-99.99,,,0.00,0.0,cwc,2013-07-12 10:00:00,
2013-07-12 04:05:00,65.7,50.2,29.65,SW,222,0.0,-999.0,57,-99.99,,,0.00,0.0,cwc,2013-07-12 10:05:00,
2013-07-12 04:10:00,65.4,49.6,29.65,SW,222,0.0,-999.0,56,-99.99,,,0.00,0.0,cwc,2013-07-12 10:10:00,
2013-07-12 04:15:00,65.1,50.0,29.65,SW,222,0.0,-999.0,58,-99.99,,,0.00,0.0,cwc,2013-07-12 10:15:00,
2013-07-12 04:20:00,64.8,50.8,29.65,SW,222,1.0,-999.0,61,-99.99,,,0.00,0.0,cwc,2013-07-12 10:20:00,
2013-07-12 04:25:00,64.7,51.0,29.65,SW,222,0.0,-999.0,62,-99.99,,,0.00,0.0,cwc,2013-07-12 10:25:00,
2013-07-12 04:30:00,64.5,50.1,29.65,SW,222,0.0,-999.0,60,-99.99,,,0.00,0.0,cwc,2013-07-12 10:30:00,
2013-07-12 04:35:00,64.3,50.6,29.65,SW,222,0.0,-999.0,62,-99.99,,,0.00,0.0,cwc,2013-07-12 10:35:00,
2013-07-12 04:40:00,64.0,49.6,29.65,SW,222,0.0,-999.0,60,-99.99,,,0.00,0.0,cwc,2013-07-12 10:40:00,
2013-07-12 04:45:00,63.3,49.6,29.65,SW,222,0.0,-999.0,62,-99.99,,,0.00,0.0,cwc,2013-07-12 10:45:00,
2013-07-12 04:50:00,63.0,49.7,29.65,SW,222,0.0,-999.0,63,-99.99,,,0.00,0.0,cwc,2013-07-12 10:50:00,
2013-07-12 04:55:00,62.6,48.6,29.65,SW,222,0.0,-999.0,61,-99.99,,,0.00,0.0,cwc,2013-07-12 10:55:00,
2013-07-12 05:00:00,62.3,48.6,29.65,SW,222,0.0,-999.0,62,-99.99,,,0.00,0.0,cwc,2013-07-12 11:00:00,
2013-07-12 05:05:00,62.1,49.1,29.65,SW,222,0.0,-999.0,64,-99.99,,,0.00,0.0,cwc,2013-07-12 11:05:00,
2013-07-12 05:10:00,62.0,49.4,29.66,SW,222,0.0,-999.0,65,-99.99,,,0.00,0.0,cwc,2013-07-12 11:10:00,
2013-07-12 05:15:00,61.9,48.2,29.65,SW,222,0.0,-999.0,62,-99.99,,,0.00,0.0,cwc,2013-07-12 11:15:00,
2013-07-12 05:20:00,61.8,48.1,29.65,SW,222,0.0,-999.0,62,-99.99,,,0.00,0.0,cwc,2013-07-12 11:20:00,
2013-07-12 05:25:00,61.4,48.1,29.66,SW,222,1.0,-999.0,63,-99.99,,,0.00,0.0,cwc,2013-07-12 11:25:00,
2013-07-12 05:30:00,61.4,48.1,29.66,SW,222,0.0,-999.0,63,-99.99,,,0.00,0.0,cwc,2013-07-12 11:30:00,
2013-07-12 05:35:00,61.2,47.9,29.66,SW,222,0.0,-999.0,63,-99.99,,,0.00,0.0,cwc,2013-07-12 11:35:00,
2013-07-12 05:40:00,61.0,47.7,29.66,SW,222,3.0,-999.0,63,-99.99,,,0.00,0.0,cwc,2013-07-12 11:40:00,
2013-07-12 05:45:00,61.0,47.7,29.66,SW,222,1.0,-999.0,63,-99.99,,,0.00,0.0,cwc,2013-07-12 11:45:00,
2013-07-12 05:50:00,60.8,47.5,29.66,SW,222,2.0,-999.0,63,-99.99,,,0.00,0.0,cwc,2013-07-12 11:50:00,
2013-07-12 05:55:00,60.5,47.2,29.66,SW,222,0.0,-999.0,63,-99.99,,,0.00,0.0,cwc,2013-07-12 11:55:00,
2013-07-12 06:00:00,60.3,47.3,29.67,SW,222,0.0,-999.0,64,-99.99,,,0.00,5.0,cwc,2013-07-12 12:00:00,
2013-07-12 06:05:00,60.2,47.2,29.67,SW,222,0.0,-999.0,64,-99.99,,,0.00,7.0,cwc,2013-07-12 12:05:00,
2013-07-12 06:10:00,60.2,48.0,29.67,SW,222,0.0,-999.0,66,-99.99,,,0.00,9.0,cwc,2013-07-12 12:10:00,
2013-07-12 06:15:00,60.1,47.1,29.67,SW,222,1.0,-999.0,64,-99.99,,,0.00,11.0,cwc,2013-07-12 12:15:00,
2013-07-12 06:20:00,60.0,47.4,29.67,SW,222,0.0,-999.0,65,-99.99,,,0.00,14.0,cwc,2013-07-12 12:20:00,
2013-07-12 06:25:00,59.9,47.7,29.67,SW,222,0.0,-999.0,66,-99.99,,,0.00,14.0,cwc,2013-07-12 12:25:00,
2013-07-12 06:30:00,60.1,47.5,29.68,SW,222,0.0,-999.0,65,-99.99,,,0.00,25.0,cwc,2013-07-12 12:30:00,
2013-07-12 06:40:00,60.4,48.2,29.68,SW,222,1.0,-999.0,66,-99.99,,,0.00,56.0,cwc,2013-07-12 12:40:00,
2013-07-12 06:45:00,60.8,48.2,29.68,SW,222,2.0,-999.0,65,-99.99,,,0.00,69.0,cwc,2013-07-12 12:45:00,
2013-07-12 06:55:00,61.5,48.5,29.68,SW,222,0.0,-999.0,64,-99.99,,,0.00,67.0,cwc,2013-07-12 12:55:00,
2013-07-12 07:00:00,61.8,48.8,29.68,SW,222,0.0,-999.0,64,-99.99,,,0.00,123.0,cwc,2013-07-12 13:00:00,
2013-07-12 07:05:00,62.1,49.1,29.68,SW,222,0.0,-999.0,64,-99.99,,,0.00,134.0,cwc,2013-07-12 13:05:00,
2013-07-12 07:10:00,62.6,49.6,29.68,SW,222,0.0,-999.0,64,-99.99,,,0.00,162.0,cwc,2013-07-12 13:10:00,
2013-07-12 07:15:00,63.4,50.4,29.68,SW,222,0.0,-999.0,64,-99.99,,,0.00,167.0,cwc,2013-07-12 13:15:00,
2013-07-12 07:20:00,64.1,50.8,29.68,SW,222,0.0,-999.0,63,-99.99,,,0.00,162.0,cwc,2013-07-12 13:20:00,
2013-07-12 07:25:00,64.9,51.2,29.68,SW,222,0.0,-999.0,62,-99.99,,,0.00,146.0,cwc,2013-07-12 13:25:00,
2013-07-12 07:30:00,65.4,51.4,29.68,SW,222,0.0,-999.0,61,-99.99,,,0.00,237.0,cwc,2013-07-12 13:30:00,
2013-07-12 07:35:00,66.0,51.6,29.69,SW,222,0.0,-999.0,60,-99.99,,,0.00,225.0,cwc,2013-07-12 13:35:00,
2013-07-12 07:40:00,66.8,52.0,29.69,SW,222,0.0,-999.0,59,-99.99,,,0.00,137.0,cwc,2013-07-12 13:40:00,
2013-07-12 07:45:00,67.4,52.3,29.69,SW,222,0.0,-999.0,58,-99.99,,,0.00,97.0,cwc,2013-07-12 13:45:00,
2013-07-12 07:50:00,67.8,52.3,29.69,SW,222,0.0,-999.0,57,-99.99,,,0.00,113.0,cwc,2013-07-12 13:50:00,
2013-07-12 07:55:00,68.0,52.5,29.68,SW,222,0.0,-999.0,57,-99.99,,,0.00,132.0,cwc,2013-07-12 13:55:00,
2013-07-12 08:00:00,68.4,52.6,29.68,SW,222,0.0,-999.0,56,-99.99,,,0.00,98.0,cwc,2013-07-12 14:00:00,
2013-07-12 08:05:00,68.4,52.2,29.68,SW,222,1.0,-999.0,55,-99.99,,,0.00,211.0,cwc,2013-07-12 14:05:00,
2013-07-12 08:10:00,68.3,51.7,29.68,SW,222,2.0,-999.0,54,-99.99,,,0.00,169.0,cwc,2013-07-12 14:10:00,
2013-07-12 08:15:00,68.3,51.7,29.68,SW,226,3.0,-999.0,54,-99.99,,,0.00,260.0,cwc,2013-07-12 14:15:00,
2013-07-12 08:20:00,68.6,52.0,29.68,West,263,2.0,-999.0,54,-99.99,,,0.00,287.0,cwc,2013-07-12 14:20:00,
2013-07-12 08:25:00,69.0,52.1,29.68,West,272,3.0,-999.0,53,-99.99,,,0.00,459.0,cwc,2013-07-12 14:25:00,
2013-07-12 08:30:00,69.6,52.7,29.68,West,280,2.0,-999.0,53,-99.99,,,0.00,454.0,cwc,2013-07-12 14:30:00,
2013-07-12 08:35:00,70.2,53.3,29.68,WNW,285,1.0,-999.0,53,-99.99,,,0.00,464.0,cwc,2013-07-12 14:35:00,
2013-07-12 08:40:00,71.0,53.7,29.68,WNW,285,1.0,-999.0,52,-99.99,,,0.00,485.0,cwc,2013-07-12 14:40:00,
2013-07-12 08:45:00,72.1,53.7,29.68,WNW,286,0.0,-999.0,49,-99.99,,,0.00,510.0,cwc,2013-07-12 14:45:00,
2013-07-12 08:50:00,72.7,54.3,29.67,WNW,286,4.0,-999.0,49,-99.99,,,0.00,533.0,cwc,2013-07-12 14:50:00,
2013-07-12 08:55:00,73.2,54.5,29.67,WNW,292,2.0,-999.0,48,-99.99,,,0.00,554.0,cwc,2013-07-12 14:55:00,
2013-07-12 09:00:00,73.8,55.1,29.67,WNW,292,1.0,-999.0,48,-99.99,,,0.00,580.0,cwc,2013-07-12 15:00:00,
2013-07-12 09:05:00,74.4,55.0,29.67,WNW,292,0.0,-999.0,46,-99.99,,,0.00,601.0,cwc,2013-07-12 15:05:00,
2013-07-12 09:10:00,75.2,56.1,29.67,NW,311,4.0,-999.0,47,-99.99,,,0.00,617.0,cwc,2013-07-12 15:10:00,
2013-07-12 09:15:00,76.2,56.4,29.67,NW,322,3.0,-999.0,45,-99.99,,,0.00,631.0,cwc,2013-07-12 15:15:00,
2013-07-12 09:20:00,77.0,56.8,29.67,NW,322,1.0,-999.0,44,-99.99,,,0.00,640.0,cwc,2013-07-12 15:20:00,
2013-07-12 09:30:00,78.3,57.4,29.67,WSW,251,4.0,-999.0,42,-99.99,,,0.00,656.0,cwc,2013-07-12 15:30:00,
2013-07-12 09:35:00,78.5,57.6,29.66,South,175,7.0,-999.0,42,-99.99,,,0.00,650.0,cwc,2013-07-12 15:35:00,
2013-07-12 09:40:00,78.7,57.8,29.66,South,182,6.0,-999.0,42,-99.99,,,0.00,675.0,cwc,2013-07-12 15:40:00,
2013-07-12 09:45:00,79.0,57.8,29.66,SSW,194,11.0,-999.0,41,-99.99,,,0.00,682.0,cwc,2013-07-12 15:45:00,
2013-07-12 09:55:00,78.3,57.8,29.66,South,186,7.0,-999.0,43,-99.99,,,0.00,703.0,cwc,2013-07-12 15:55:00,
2013-07-12 10:00:00,78.6,57.4,29.66,SSW,213,5.0,-999.0,41,-99.99,,,0.00,599.0,cwc,2013-07-12 16:00:00,
2013-07-12 10:05:00,79.0,57.4,29.66,South,189,7.0,-999.0,40,-99.99,,,0.00,724.0,cwc,2013-07-12 16:05:00,
2013-07-12 10:10:00,79.2,57.6,29.66,South,182,9.0,-999.0,40,-99.99,,,0.00,737.0,cwc,2013-07-12 16:10:00,
2013-07-12 10:15:00,79.4,57.8,29.66,South,173,3.0,-999.0,40,-99.99,,,0.00,747.0,cwc,2013-07-12 16:15:00,
2013-07-12 10:20:00,79.7,58.1,29.66,SSW,205,3.0,-999.0,40,-99.99,,,0.00,761.0,cwc,2013-07-12 16:20:00,
2013-07-12 10:25:00,79.7,58.1,29.66,SSW,209,2.0,-999.0,40,-99.99,,,0.00,772.0,cwc,2013-07-12 16:25:00,
2013-07-12 10:30:00,80.1,58.1,29.65,SSW,203,0.0,-999.0,39,-99.99,,,0.00,782.0,cwc,2013-07-12 16:30:00,
2013-07-12 10:35:00,80.2,58.2,29.66,SSW,203,7.0,-999.0,39,-99.99,,,0.00,795.0,cwc,2013-07-12 16:35:00,
2013-07-12 10:40:00,80.0,58.0,29.65,SSW,198,6.0,-999.0,39,-99.99,,,0.00,807.0,cwc,2013-07-12 16:40:00,
2013-07-12 10:45:00,80.3,58.7,29.65,SSW,195,2.0,-999.0,40,-99.99,,,0.00,826.0,cwc,2013-07-12 16:45:00,
2013-07-12 10:50:00,80.6,58.6,29.65,South,182,5.0,-999.0,39,-99.99,,,0.00,842.0,cwc,2013-07-12 16:50:00,
2013-07-12 10:55:00,81.2,58.9,29.64,SSE,167,6.0,-999.0,38,-99.99,,,0.00,854.0,cwc,2013-07-12 16:55:00,
2013-07-12 11:00:00,81.3,59.0,29.64,SW,227,6.0,-999.0,38,-99.99,,,0.00,872.0,cwc,2013-07-12 17:00:00,
2013-07-12 11:05:00,81.7,59.4,29.64,SSW,196,7.0,-999.0,38,-99.99,,,0.00,898.0,cwc,2013-07-12 17:05:00,
2013-07-12 11:10:00,82.1,59.4,29.64,SSW,194,1.0,-999.0,37,-99.99,,,0.00,942.0,cwc,2013-07-12 17:10:00,
2013-07-12 11:15:00,82.4,59.4,29.64,SSW,202,0.0,-999.0,36,-99.99,,,0.00,967.0,cwc,2013-07-12 17:15:00,
2013-07-12 11:25:00,83.2,59.8,29.63,SW,215,4.0,-999.0,35,-99.99,,,0.00,867.0,cwc,2013-07-12 17:25:00,
2013-07-12 11:30:00,83.5,60.1,29.63,South,191,14.0,-999.0,35,-99.99,,,0.00,914.0,cwc,2013-07-12 17:30:00,
2013-07-12 11:35:00,83.0,59.2,29.63,South,187,7.0,-999.0,34,-99.99,,,0.00,206.0,cwc,2013-07-12 17:35:00,
2013-07-12 11:40:00,81.9,58.5,29.63,South,189,5.0,-999.0,35,-99.99,,,0.00,216.0,cwc,2013-07-12 17:40:00,
2013-07-12 11:45:00,81.6,58.2,29.62,SSW,212,7.0,-999.0,35,-99.99,,,0.00,387.0,cwc,2013-07-12 17:45:00,
2013-07-12 11:50:00,82.1,58.7,29.62,South,173,5.0,-999.0,35,-99.99,,,0.00,933.0,cwc,2013-07-12 17:50:00,
2013-07-12 11:55:00,82.9,59.1,29.62,SW,217,7.0,-999.0,34,-99.99,,,0.00,935.0,cwc,2013-07-12 17:55:00,
2013-07-12 12:00:00,83.1,59.3,29.62,South,185,5.0,-999.0,34,-99.99,,,0.00,946.0,cwc,2013-07-12 18:00:00,
2013-07-12 12:10:00,84.2,60.1,29.61,SW,217,9.0,-999.0,33,-99.99,,,0.00,953.0,cwc,2013-07-12 18:10:00,
2013-07-12 12:15:00,84.5,60.0,29.61,SSE,156,4.0,-999.0,32,-99.99,,,0.00,960.0,cwc,2013-07-12 18:15:00,
2013-07-12 12:25:00,84.9,60.4,29.61,SSW,197,11.0,-999.0,32,-99.99,,,0.00,969.0,cwc,2013-07-12 18:25:00,
2013-07-12 12:30:00,85.2,60.7,29.60,SW,219,3.0,-999.0,32,-99.99,,,0.00,976.0,cwc,2013-07-12 18:30:00,
2013-07-12 12:35:00,85.3,60.8,29.60,SSE,159,4.0,-999.0,32,-99.99,,,0.00,979.0,cwc,2013-07-12 18:35:00,
2013-07-12 12:40:00,85.5,60.7,29.60,South,179,10.0,-999.0,31,-99.99,,,0.00,986.0,cwc,2013-07-12 18:40:00,
2013-07-12 12:45:00,85.6,60.8,29.60,SW,222,5.0,-999.0,31,-99.99,,,0.00,991.0,cwc,2013-07-12 18:45:00,
2013-07-12 12:55:00,86.4,61.6,29.60,SSW,204,12.0,-999.0,31,-99.99,,,0.00,1004.0,cwc,2013-07-12 18:55:00,
2013-07-12 13:00:00,86.3,61.5,29.59,SSW,192,10.0,-999.0,31,-99.99,,,0.00,1018.0,cwc,2013-07-12 19:00:00,
2013-07-12 13:05:00,85.9,61.1,29.59,SSW,192,4.0,-999.0,31,-99.99,,,0.00,1027.0,cwc,2013-07-12 19:05:00,
2013-07-12 13:10:00,86.2,61.4,29.59,South,187,5.0,-999.0,31,-99.99,,,0.00,1044.0,cwc,2013-07-12 19:10:00,
2013-07-12 13:15:00,86.6,61.8,29.59,SSW,194,13.0,-999.0,31,-99.99,,,0.00,1069.0,cwc,2013-07-12 19:15:00,
2013-07-12 13:20:00,86.9,62.1,29.58,South,169,9.0,-999.0,31,-99.99,,,0.00,1123.0,cwc,2013-07-12 19:20:00,
2013-07-12 13:30:00,87.2,62.4,29.58,West,262,4.0,-999.0,31,-99.99,,,0.00,830.0,cwc,2013-07-12 19:30:00,
2013-07-12 13:45:00,86.4,61.9,29.58,SW,228,6.0,-999.0,32,-99.99,,,0.00,418.0,cwc,2013-07-12 19:45:00,
2013-07-12 13:50:00,86.0,61.5,29.58,SSW,195,5.0,-999.0,32,-99.99,,,0.00,464.0,cwc,2013-07-12 19:50:00,
2013-07-12 13:55:00,85.6,61.1,29.58,South,184,4.0,-999.0,32,-99.99,,,0.00,381.0,cwc,2013-07-12 19:55:00,
2013-07-12 14:00:00,85.2,60.7,29.58,WSW,244,6.0,-999.0,32,-99.99,,,0.00,364.0,cwc,2013-07-12 20:00:00,
2013-07-12 14:05:00,85.1,61.0,29.58,SW,214,19.0,-999.0,33,-99.99,,,0.00,345.0,cwc,2013-07-12 20:05:00,
2013-07-12 14:10:00,85.0,60.5,29.58,SSW,192,10.0,-999.0,32,-99.99,,,0.00,320.0,cwc,2013-07-12 20:10:00,
2013-07-12 14:15:00,84.9,60.8,29.58,SSW,198,7.0,-999.0,33,-99.99,,,0.00,327.0,cwc,2013-07-12 20:15:00,
2013-07-12 14:20:00,84.8,60.7,29.58,SSW,205,10.0,-999.0,33,-99.99,,,0.00,311.0,cwc,2013-07-12 20:20:00,
2013-07-12 14:25:00,84.7,60.2,29.58,South,191,13.0,-999.0,32,-99.99,,,0.00,311.0,cwc,2013-07-12 20:25:00,
2013-07-12 14:30:00,84.6,59.4,29.59,SW,214,7.0,-999.0,30,-99.99,,,0.00,330.0,cwc,2013-07-12 20:30:00,
2013-07-12 14:35:00,84.7,59.1,29.59,South,175,6.0,-999.0,29,-99.99,,,0.00,336.0,cwc,2013-07-12 20:35:00,
2013-07-12 14:40:00,85.1,59.2,29.59,SE,137,0.0,-999.0,28,-99.99,,,0.00,348.0,cwc,2013-07-12 20:40:00,
2013-07-12 14:55:00,86.0,60.1,29.59,SW,235,2.0,-999.0,28,-99.99,,,0.00,346.0,cwc,2013-07-12 20:55:00,
2013-07-12 15:00:00,85.9,60.3,29.59,NE,48,1.0,-999.0,29,-99.99,,,0.00,329.0,cwc,2013-07-12 21:00:00,
2013-07-12 15:10:00,85.4,59.8,29.59,South,184,0.0,-999.0,29,-99.99,,,0.00,262.0,cwc,2013-07-12 21:10:00,
2013-07-12 15:15:00,85.3,59.7,29.60,WSW,246,0.0,-999.0,29,-99.99,,,0.00,227.0,cwc,2013-07-12 21:15:00,
2013-07-12 15:25:00,84.7,59.1,29.59,SW,236,7.0,-999.0,29,-99.99,,,0.00,220.0,cwc,2013-07-12 21:25:00,
2013-07-12 15:30:00,84.4,59.2,29.59,SSE,156,8.0,-999.0,30,-99.99,,,0.00,197.0,cwc,2013-07-12 21:30:00,
2013-07-12 15:40:00,83.2,58.7,29.59,South,182,0.0,-999.0,32,-99.99,,,0.00,167.0,cwc,2013-07-12 21:40:00,
2013-07-12 15:45:00,83.0,58.9,29.59,SSW,210,7.0,-999.0,33,-99.99,,,0.00,156.0,cwc,2013-07-12 21:45:00,
2013-07-12 16:00:00,82.7,58.9,29.59,SSW,192,8.0,-999.0,34,-99.99,,,0.00,158.0,cwc,2013-07-12 22:00:00,
2013-07-12 16:05:00,82.7,58.9,29.59,South,173,2.0,-999.0,34,-99.99,,,0.00,163.0,cwc,2013-07-12 22:05:00,
2013-07-12 16:10:00,82.8,58.7,29.59,SSW,202,7.0,-999.0,33,-99.99,,,0.00,163.0,cwc,2013-07-12 22:10:00,
2013-07-12 16:15:00,82.9,58.8,29.59,SSW,209,5.0,-999.0,33,-99.99,,,0.00,165.0,cwc,2013-07-12 22:15:00,
2013-07-12 16:20:00,82.9,58.8,29.58,SSW,206,1.0,-999.0,33,-99.99,,,0.00,167.0,cwc,2013-07-12 22:20:00,
2013-07-12 16:25:00,83.1,59.0,29.58,SSW,205,0.0,-999.0,33,-99.99,,,0.00,174.0,cwc,2013-07-12 22:25:00,
2013-07-12 16:35:00,83.2,58.7,29.58,SW,227,2.0,-999.0,32,-99.99,,,0.00,165.0,cwc,2013-07-12 22:35:00,
2013-07-12 16:45:00,83.3,58.5,29.58,South,186,6.0,-999.0,31,-99.99,,,0.00,167.0,cwc,2013-07-12 22:45:00,
2013-07-12 16:50:00,83.4,58.2,29.58,SW,221,4.0,-999.0,30,-99.99,,,0.00,195.0,cwc,2013-07-12 22:50:00,
2013-07-12 16:55:00,83.5,58.3,29.59,SW,218,3.0,-999.0,30,-99.99,,,0.00,207.0,cwc,2013-07-12 22:55:00,
2013-07-12 17:00:00,83.6,58.8,29.59,SSW,211,7.0,-999.0,31,-99.99,,,0.00,211.0,cwc,2013-07-12 23:00:00,
2013-07-12 17:05:00,83.7,59.2,29.59,SW,222,5.0,-999.0,32,-99.99,,,0.00,380.0,cwc,2013-07-12 23:05:00,
2013-07-12 17:10:00,84.0,59.2,29.59,SW,217,3.0,-999.0,31,-99.99,,,0.00,408.0,cwc,2013-07-12 23:10:00,
2013-07-12 17:15:00,84.5,59.7,29.59,SSW,195,5.0,-999.0,31,-99.99,,,0.00,422.0,cwc,2013-07-12 23:15:00,
2013-07-12 17:30:00,84.6,59.8,29.58,SSW,203,3.0,-999.0,31,-99.99,,,0.00,445.0,cwc,2013-07-12 23:30:00,
2013-07-12 17:35:00,84.6,60.5,29.58,SW,230,4.0,-999.0,33,-99.99,,,0.00,439.0,cwc,2013-07-12 23:35:00,
2013-07-12 17:40:00,84.7,60.6,29.58,SSW,205,3.0,-999.0,33,-99.99,,,0.00,459.0,cwc,2013-07-12 23:40:00,
2013-07-12 17:50:00,84.7,60.6,29.58,SSW,210,16.0,-999.0,33,-99.99,,,0.00,457.0,cwc,2013-07-12 23:50:00,
2013-07-12 18:00:00,84.2,60.4,29.58,SSW,213,7.0,-999.0,34,-99.99,,,0.00,388.0,cwc,2013-07-13 00:00:00,
2013-07-12 18:05:00,83.9,59.8,29.58,SSW,192,10.0,-999.0,33,-99.99,,,0.00,104.0,cwc,2013-07-13 00:05:00,
2013-07-12 18:10:00,83.3,59.5,29.58,SW,220,4.0,-999.0,34,-99.99,,,0.00,221.0,cwc,2013-07-13 00:10:00,
2013-07-12 18:15:00,83.0,59.2,29.58,SSW,193,5.0,-999.0,34,-99.99,,,0.00,209.0,cwc,2013-07-13 00:15:00,
2013-07-12 18:20:00,82.8,59.4,29.58,SW,225,6.0,-999.0,35,-99.99,,,0.00,176.0,cwc,2013-07-13 00:20:00,
2013-07-12 18:25:00,82.5,59.1,29.59,South,175,3.0,-999.0,35,-99.99,,,0.00,90.0,cwc,2013-07-13 00:25:00,
2013-07-12 18:35:00,81.9,57.1,29.59,SW,223,9.0,-999.0,31,-99.99,,,0.00,81.0,cwc,2013-07-13 00:35:00,
2013-07-12 18:40:00,81.8,57.0,29.59,SW,215,5.0,-999.0,31,-99.99,,,0.00,83.0,cwc,2013-07-13 00:40:00,
2013-07-12 18:50:00,81.6,56.8,29.59,SW,215,5.0,-999.0,31,-99.99,,,0.00,56.0,cwc,2013-07-13 00:50:00,
2013-07-12 18:55:00,81.5,56.7,29.59,SW,221,11.0,-999.0,31,-99.99,,,0.00,51.0,cwc,2013-07-13 00:55:00,
2013-07-12 19:00:00,81.3,57.2,29.59,South,187,6.0,-999.0,33,-99.99,,,0.00,49.0,cwc,2013-07-13 01:00:00,
2013-07-12 19:10:00,80.8,56.7,29.59,SSW,200,6.0,-999.0,33,-99.99,,,0.00,46.0,cwc,2013-07-13 01:10:00,
2013-07-12 19:25:00,80.4,57.0,29.59,SSW,208,2.0,-999.0,35,-99.99,,,0.00,47.0,cwc,2013-07-13 01:25:00,
2013-07-12 19:30:00,80.2,56.8,29.59,SSW,211,4.0,-999.0,35,-99.99,,,0.00,47.0,cwc,2013-07-13 01:30:00,
2013-07-12 19:45:00,79.8,56.8,29.59,SSW,211,0.0,-999.0,36,-99.99,,,0.00,37.0,cwc,2013-07-13 01:45:00,
2013-07-12 19:50:00,79.6,56.6,29.59,SSW,211,4.0,-999.0,36,-99.99,,,0.00,33.0,cwc,2013-07-13 01:50:00,
2013-07-12 20:00:00,79.3,56.3,29.59,SSW,211,2.0,-999.0,36,-99.99,,,0.00,14.0,cwc,2013-07-13 02:00:00,
2013-07-12 20:10:00,78.9,56.2,29.59,SSW,211,2.0,-999.0,37,-99.99,,,0.00,5.0,cwc,2013-07-13 02:10:00,
2013-07-12 20:15:00,78.7,56.0,29.60,SSW,210,0.0,-999.0,37,-99.99,,,0.00,0.0,cwc,2013-07-13 02:15:00,
2013-07-12 20:20:00,78.4,55.7,29.60,SSW,211,4.0,-999.0,37,-99.99,,,0.00,0.0,cwc,2013-07-13 02:20:00,
2013-07-12 20:25:00,78.2,55.9,29.60,SSW,211,3.0,-999.0,38,-99.99,,,0.00,0.0,cwc,2013-07-13 02:25:00,
2013-07-12 20:30:00,78.0,55.7,29.60,SSW,211,3.0,-999.0,38,-99.99,,,0.00,0.0,cwc,2013-07-13 02:30:00,
2013-07-12 20:35:00,77.8,55.5,29.60,SSW,210,5.0,-999.0,38,-99.99,,,0.00,0.0,cwc,2013-07-13 02:35:00,
2013-07-12 20:40:00,77.7,55.4,29.60,SSW,211,5.0,-999.0,38,-99.99,,,0.00,0.0,cwc,2013-07-13 02:40:00,
2013-07-12 20:45:00,77.5,55.5,29.61,SSW,211,4.0,-999.0,39,-99.99,,,0.00,0.0,cwc,2013-07-13 02:45:00,
2013-07-12 20:50:00,77.5,55.5,29.61,SSW,195,3.0,-999.0,39,-99.99,,,0.00,0.0,cwc,2013-07-13 02:50:00,
2013-07-12 20:55:00,77.4,55.4,29.61,SSW,195,0.0,-999.0,39,-99.99,,,0.00,0.0,cwc,2013-07-13 02:55:00,
2013-07-12 21:00:00,77.3,55.3,29.61,SSW,211,6.0,-999.0,39,-99.99,,,0.00,0.0,cwc,2013-07-13 03:00:00,
2013-07-12 21:05:00,77.3,55.3,29.62,SSW,212,0.0,-999.0,39,-99.99,,,0.00,0.0,cwc,2013-07-13 03:05:00,
2013-07-12 21:10:00,77.2,55.2,29.62,SSW,212,0.0,-999.0,39,-99.99,,,0.00,0.0,cwc,2013-07-13 03:10:00,
2013-07-12 21:15:00,77.1,55.5,29.62,SSW,211,0.0,-999.0,40,-99.99,,,0.00,0.0,cwc,2013-07-13 03:15:00,
2013-07-12 21:20:00,76.9,55.3,29.62,SSW,212,0.0,-999.0,40,-99.99,,,0.00,0.0,cwc,2013-07-13 03:20:00,
2013-07-12 21:25:00,76.7,55.1,29.62,SSW,211,1.0,-999.0,40,-99.99,,,0.00,0.0,cwc,2013-07-13 03:25:00,
2013-07-12 21:30:00,76.5,54.9,29.63,SSW,211,0.0,-999.0,40,-99.99,,,0.00,0.0,cwc,2013-07-13 03:30:00,
2013-07-12 21:35:00,76.3,55.1,29.63,SSW,211,0.0,-999.0,41,-99.99,,,0.00,0.0,cwc,2013-07-13 03:35:00,
2013-07-12 21:40:00,76.0,54.8,29.63,SSW,212,0.0,-999.0,41,-99.99,,,0.00,0.0,cwc,2013-07-13 03:40:00,
2013-07-12 21:45:00,75.7,54.8,29.64,SSW,212,0.0,-999.0,42,-99.99,,,0.00,0.0,cwc,2013-07-13 03:45:00,
2013-07-12 21:50:00,75.3,54.4,29.64,SSW,211,0.0,-999.0,42,-99.99,,,0.00,0.0,cwc,2013-07-13 03:50:00,
2013-07-12 21:55:00,74.8,54.3,29.65,SSW,212,0.0,-999.0,43,-99.99,,,0.00,0.0,cwc,2013-07-13 03:55:00,
2013-07-12 22:00:00,74.3,53.8,29.65,SSW,211,0.0,-999.0,43,-99.99,,,0.00,0.0,cwc,2013-07-13 04:00:00,
2013-07-12 22:05:00,74.1,53.9,29.65,SSW,212,4.0,-999.0,44,-99.99,,,0.00,0.0,cwc,2013-07-13 04:05:00,
2013-07-12 22:10:00,74.0,53.8,29.66,SSW,212,2.0,-999.0,44,-99.99,,,0.00,0.0,cwc,2013-07-13 04:10:00,
2013-07-12 22:15:00,73.8,53.3,29.66,SSW,212,0.0,-999.0,43,-99.99,,,0.00,0.0,cwc,2013-07-13 04:15:00,
2013-07-12 22:25:00,72.9,54.5,29.66,SSW,211,0.0,-999.0,49,-99.99,,,0.00,0.0,cwc,2013-07-13 04:25:00,
2013-07-12 22:30:00,72.3,53.9,29.66,SSW,211,0.0,-999.0,49,-99.99,,,0.00,0.0,cwc,2013-07-13 04:30:00,
2013-07-12 22:35:00,71.8,53.1,29.66,SSW,212,0.0,-999.0,48,-99.99,,,0.00,0.0,cwc,2013-07-13 04:35:00,
2013-07-12 22:45:00,71.1,52.0,29.67,SSW,211,0.0,-999.0,47,-99.99,,,0.00,0.0,cwc,2013-07-13 04:45:00,
2013-07-12 22:50:00,71.1,51.7,29.67,SSW,212,2.0,-999.0,46,-99.99,,,0.00,0.0,cwc,2013-07-13 04:50:00,
2013-07-12 22:55:00,71.2,51.8,29.67,SSW,212,0.0,-999.0,46,-99.99,,,0.00,0.0,cwc,2013-07-13 04:55:00,
2013-07-12 23:00:00,71.2,52.5,29.67,SSW,211,0.0,-999.0,48,-99.99,,,0.00,0.0,cwc,2013-07-13 05:00:00,
2013-07-12 23:05:00,70.9,52.5,29.67,SSW,211,0.0,-999.0,49,-99.99,,,0.00,0.0,cwc,2013-07-13 05:05:00,
2013-07-12 23:10:00,70.6,52.2,29.67,SSW,212,0.0,-999.0,49,-99.99,,,0.00,0.0,cwc,2013-07-13 05:10:00,
2013-07-12 23:20:00,70.7,52.3,29.67,SSW,212,0.0,-999.0,49,-99.99,,,0.00,0.0,cwc,2013-07-13 05:20:00,
2013-07-12 23:25:00,70.5,51.8,29.67,SSW,211,1.0,-999.0,48,-99.99,,,0.00,0.0,cwc,2013-07-13 05:25:00,
2013-07-12 23:30:00,70.3,51.6,29.67,SSW,211,0.0,-999.0,48,-99.99,,,0.00,0.0,cwc,2013-07-13 05:30:00,
2013-07-12 23:40:00,69.9,52.3,29.68,SSW,211,0.0,-999.0,51,-99.99,,,0.00,0.0,cwc,2013-07-13 05:40:00,
2013-07-12 23:45:00,69.7,51.7,29.69,SSW,212,0.0,-999.0,50,-99.99,,,0.00,0.0,cwc,2013-07-13 05:45:00,
2013-07-12 23:55:00,69.7,51.7,29.69,SSW,212,0.0,-999.0,50,-99.99,,,0.00,0.0,cwc,2013-07-13 05:55:00,